TimeEDT,TemperatureF,Dew PointF,Humidity,Sea Level PressureIn,VisibilityMPH,Wind Direction,Wind SpeedMPH,Gust SpeedMPH,PrecipitationIn,Events,Conditions,WindDirDegrees,DateUTC
12:02 AM,19.4,15.8,86,29.76,1.0,West,16.1,23.0,0.00,Snow,Light Snow,260,2013-03-22 04:02:00
12:22 AM,19.4,15.8,86,29.75,2.0,West,15.0,-,0.00,Snow,Light Snow,270,2013-03-22 04:22:00
12:37 AM,19.4,15.8,86,29.75,3.0,West,16.1,27.6,0.00,Snow,Light Snow,270,2013-03-22 04:37:00
12:54 AM,19.9,16.0,85,29.85,5.0,West,18.4,24.2,0.00,Snow,Light Snow,270,2013-03-22 04:54:00
1:06 AM,19.4,15.8,86,29.74,1.8,West,16.1,29.9,0.00,Snow,Light Snow,270,2013-03-22 05:06:00
1:14 AM,19.4,15.8,86,29.74,2.5,West,17.3,28.8,0.00,Snow,Light Snow,270,2013-03-22 05:14:00
1:21 AM,19.4,15.8,86,29.74,3.0,West,17.3,25.3,0.00,Snow,Light Snow,260,2013-03-22 05:21:00
1:33 AM,19.4,15.8,86,29.75,5.0,West,17.3,27.6,0.00,Snow,Light Snow,280,2013-03-22 05:33:00
1:54 AM,19.9,16.0,85,29.85,3.0,West,18.4,26.5,0.00,Snow,Light Snow,280,2013-03-22 05:54:00
2:02 AM,19.4,15.8,86,29.75,1.8,West,16.1,26.5,0.00,Snow,Light Snow,270,2013-03-22 06:02:00
2:31 AM,19.4,17.6,93,29.75,2.0,West,18.4,26.5,0.00,Snow,Light Snow,270,2013-03-22 06:31:00
2:51 AM,19.4,15.8,86,29.75,1.8,West,18.4,29.9,0.00,Snow,Light Snow,270,2013-03-22 06:51:00
2:54 AM,19.9,16.0,85,29.85,1.8,West,15.0,29.9,0.00,Snow,Light Snow,280,2013-03-22 06:54:00
3:03 AM,19.4,15.8,86,29.74,2.5,West,18.4,26.5,0.00,Snow,Light Snow,280,2013-03-22 07:03:00
3:10 AM,19.4,15.8,86,29.74,4.0,West,18.4,28.8,0.00,Snow,Light Snow,280,2013-03-22 07:10:00
3:23 AM,19.4,15.8,86,29.74,2.0,West,16.1,26.5,0.00,Snow,Light Snow,270,2013-03-22 07:23:00
3:31 AM,19.4,15.8,86,29.74,1.8,West,13.8,25.3,0.00,Snow,Light Snow,280,2013-03-22 07:31:00
3:42 AM,19.4,17.6,93,29.74,2.0,West,15.0,-,0.00,Snow,Light Snow,280,2013-03-22 07:42:00
3:54 AM,19.9,16.0,85,29.84,3.0,West,16.1,24.2,0.00,Snow,Light Snow,280,2013-03-22 07:54:00
4:26 AM,19.4,15.8,86,29.74,2.5,West,19.6,27.6,0.00,Snow,Light Snow,270,2013-03-22 08:26:00
4:39 AM,19.4,15.8,86,29.74,4.0,West,16.1,27.6,0.00,Snow,Light Snow,280,2013-03-22 08:39:00
4:54 AM,19.9,16.0,85,29.84,8.0,West,17.3,24.2,0.00,,Overcast,270,2013-03-22 08:54:00
5:12 AM,19.4,15.8,86,29.74,1.8,West,13.8,25.3,0.00,Snow,Light Snow,280,2013-03-22 09:12:00
5:42 AM,19.4,15.8,86,29.75,2.0,West,16.1,24.2,0.00,Snow,Light Snow,280,2013-03-22 09:42:00
5:54 AM,19.9,16.0,85,29.86,2.5,West,15.0,26.5,0.00,Snow,Light Snow,270,2013-03-22 09:54:00
6:08 AM,19.4,15.8,86,29.75,4.0,West,13.8,21.9,0.00,Snow,Light Snow,270,2013-03-22 10:08:00
6:15 AM,19.4,15.8,86,29.76,5.0,West,15.0,21.9,0.00,Snow,Light Snow,270,2013-03-22 10:15:00
6:54 AM,19.9,15.1,81,29.87,4.0,West,12.7,26.5,0.00,Snow,Light Snow,270,2013-03-22 10:54:00
7:54 AM,19.9,14.0,78,29.89,7.0,West,18.4,29.9,0.00,,Overcast,280,2013-03-22 11:54:00
8:54 AM,19.9,14.0,78,29.91,7.0,WNW,15.0,-,0.00,Snow,Light Snow,290,2013-03-22 12:54:00
9:54 AM,21.0,14.0,74,29.92,5.0,West,16.1,24.2,0.00,Snow,Light Snow,280,2013-03-22 13:54:00
10:54 AM,21.9,15.1,75,29.92,5.0,WNW,16.1,24.2,0.00,Snow,Light Snow,300,2013-03-22 14:54:00
11:54 AM,21.9,15.1,75,29.93,8.0,West,13.8,20.7,0.00,Snow,Light Snow,280,2013-03-22 15:54:00
12:54 PM,23.0,16.0,74,29.93,3.0,West,11.5,21.9,0.00,Snow,Light Snow,270,2013-03-22 16:54:00
1:02 PM,23.0,15.8,74,29.83,2.5,WSW,12.7,-,0.00,Snow,Light Snow,250,2013-03-22 17:02:00
1:19 PM,23.0,17.6,80,29.83,3.0,West,11.5,-,0.00,Snow,Light Snow,270,2013-03-22 17:19:00
1:33 PM,21.2,17.6,86,29.83,2.5,West,13.8,-,0.00,Snow,Light Snow,260,2013-03-22 17:33:00
1:47 PM,23.0,15.8,74,29.83,3.0,West,15.0,21.9,0.00,Snow,Light Snow,270,2013-03-22 17:47:00
1:54 PM,23.0,16.0,74,29.93,4.0,West,15.0,23.0,0.00,Snow,Light Snow,270,2013-03-22 17:54:00
2:15 PM,23.0,17.6,80,29.83,2.0,WSW,15.0,-,0.00,Snow,Light Snow,250,2013-03-22 18:15:00
2:24 PM,23.0,15.8,74,29.83,5.0,West,15.0,-,0.00,Snow,Light Snow,260,2013-03-22 18:24:00
2:54 PM,24.1,17.1,75,29.93,6.0,West,12.7,21.9,0.00,Snow,Light Snow,260,2013-03-22 18:54:00
3:54 PM,24.1,16.0,71,29.94,5.0,West,16.1,21.9,0.00,Snow,Light Snow,270,2013-03-22 19:54:00
4:54 PM,25.0,14.0,63,29.95,10.0,West,18.4,24.2,0.00,,Overcast,270,2013-03-22 20:54:00
5:54 PM,25.0,15.1,66,29.96,10.0,West,10.4,19.6,N/A,,Overcast,270,2013-03-22 21:54:00
6:54 PM,25.0,15.1,66,29.97,10.0,West,10.4,17.3,N/A,,Overcast,260,2013-03-22 22:54:00
7:54 PM,25.0,15.1,66,29.98,10.0,West,10.4,-,N/A,,Overcast,260,2013-03-22 23:54:00
8:36 PM,24.8,15.8,69,29.90,10.0,WNW,6.9,-,N/A,,Scattered Clouds,300,2013-03-23 00:36:00
8:54 PM,23.0,15.1,72,30.00,10.0,WNW,5.8,-,N/A,,Partly Cloudy,300,2013-03-23 00:54:00
9:54 PM,21.9,15.1,75,30.01,10.0,WNW,4.6,-,N/A,,Clear,300,2013-03-23 01:54:00
10:54 PM,21.9,15.1,75,30.01,10.0,Calm,Calm,-,N/A,,Overcast,0,2013-03-23 02:54:00
11:54 PM,23.0,16.0,74,30.01,10.0,WSW,3.5,-,N/A,,Overcast,250,2013-03-23 03:54:00